Change the Weather History Date:

Wednesday, November 7, 2012

  Actual Average (KJAX) Record (KJAX)
Temperature  
Mean Temperature 50 °F 64 °F  
Max Temperature 59 °F 76 °F 87 °F (1986)
Min Temperature 42 °F 53 °F 36 °F (1976)
Degree Days  
Heating Degree Days 14 3  
Month to date heating degree days 20  
Since 1 July heating degree days 48  
Cooling Degree Days 0 3  
Month to date cooling degree days 21  
Year to date cooling degree days 2604  
Moisture  
Dew Point 46 °F    
Average Humidity 86    
Maximum Humidity 100    
Minimum Humidity 55    
Precipitation  
Precipitation 0.00 in 0.07 in 1.64 in (1902)
Month to date precipitation 0.52  
Year to date precipitation 48.00  
Snow  
Snow 0.00 in 0.00 in 0.00 in (2002)
Month to date snowfall 0.0  
Since 1 July snowfall 0.0  
Since 1 September snowfall 0.0  
Snow Depth -    
Sea Level Pressure  
Sea Level Pressure 29.94 in    
Wind  
Wind Speed 5 mph (NW)    
Max Wind Speed 12 mph    
Max Gust Speed -    
Visibility 10 miles    
Events Rain    
T = Trace of Precipitation, MM = Missing Value Source: NWS Daily Summary

Daily Weather History Graph

Daily Weather History Graph

Search for Another Location

Airport or City:

Trip Planner

Search our weather history database for the weather conditions in past years. The results will help you decide how hot, cold, wet, or windy it might be!

Date:

Astronomy

Nov. 07, 2012 Rise Set
Actual Time 6:46 AM EST 5:35 PM EST
Civil Twilight 6:21 AM EST 6:00 PM EST
Nautical Twilight 5:53 AM EST 6:28 PM EST
Astronomical Twilight 5:24 AM EST 6:57 PM EST
Moon 12:08 AM EST (11/7) 1:17 PM EST (11/7)
Length of Visible Light 11h 38m
Length of Day
10h 48m
Last Quarter, 43% of the Moon is Illuminated
Nov 7
Last Quarter
Nov 13
New
Nov 20
First Quarter
Nov 28
Full
Dec 6
Last Quarter

Hourly Weather History & Observations

Time (EST) Temp. Windchill Dew Point Humidity Pressure Visibility Wind Dir Wind Speed Gust Speed Precip Events Conditions
12:15 AM 53.6 °F - 51.8 °F 94% 29.90 in 10.0 mi North 4.6 mph - N/A   Mostly Cloudy
12:35 AM 53.6 °F - 51.8 °F 94% 29.89 in 10.0 mi North 4.6 mph - N/A   Mostly Cloudy
12:55 AM 51.8 °F - 50.0 °F 94% 29.89 in 10.0 mi Calm Calm - N/A   Scattered Clouds
1:15 AM 53.6 °F - 51.8 °F 94% 29.89 in 10.0 mi Calm Calm - N/A   Overcast
1:35 AM 53.6 °F - 51.8 °F 94% 29.89 in 10.0 mi NW 5.8 mph - N/A   Overcast
1:55 AM 53.6 °F - 50.0 °F 88% 29.89 in 10.0 mi NNW 8.1 mph - N/A   Overcast
2:15 AM 53.6 °F - 50.0 °F 88% 29.89 in 10.0 mi NNW 9.2 mph - N/A   Overcast
2:35 AM 53.6 °F - 50.0 °F 88% 29.89 in 10.0 mi NW 8.1 mph - N/A   Overcast
2:55 AM 51.8 °F - 48.2 °F 88% 29.89 in 10.0 mi NW 11.5 mph - N/A   Overcast
3:15 AM 50.0 °F - 48.2 °F 94% 29.90 in 10.0 mi NW 11.5 mph - N/A   Overcast
3:35 AM 50.0 °F - 46.4 °F 87% 29.90 in 10.0 mi WNW 10.4 mph - N/A   Overcast
3:55 AM 50.0 °F - 44.6 °F 82% 29.91 in 10.0 mi WNW 11.5 mph - N/A   Overcast
4:15 AM 48.2 °F - 44.6 °F 87% 29.91 in 10.0 mi WNW 9.2 mph - N/A   Mostly Cloudy
4:35 AM 48.2 °F - 42.8 °F 82% 29.92 in 10.0 mi WNW 8.1 mph - N/A   Mostly Cloudy
4:55 AM 46.4 °F 42.9 °F 41.0 °F 81% 29.93 in 10.0 mi WNW 6.9 mph - N/A   Scattered Clouds
5:15 AM 46.4 °F 42.9 °F 41.0 °F 81% 29.93 in 10.0 mi WNW 6.9 mph - N/A   Partly Cloudy
6:50 AM 42.8 °F 40.1 °F 41.0 °F 93% 29.94 in 10.0 mi NW 4.6 mph - N/A   Clear
7:50 AM 44.6 °F 40.7 °F 42.8 °F 93% 29.97 in 10.0 mi NW 6.9 mph - N/A   Clear
8:50 AM 46.4 °F 44.3 °F 41.0 °F 81% 29.97 in 10.0 mi WNW 4.6 mph - N/A   Mostly Cloudy
9:50 AM 50.0 °F - 41.0 °F 71% 29.98 in 10.0 mi NW 8.1 mph - N/A   Scattered Clouds
10:50 AM 55.4 °F - 41.0 °F 58% 29.98 in 10.0 mi NW 11.5 mph - N/A   Clear
11:50 AM 57.2 °F - 41.0 °F 55% 29.96 in 10.0 mi NW 8.1 mph - N/A   Clear
1:50 PM 59.0 °F - 42.8 °F 55% 29.90 in 10.0 mi NNW 9.2 mph - N/A   Mostly Cloudy
2:50 PM 59.0 °F - 42.8 °F 55% 29.89 in 10.0 mi WNW 5.8 mph - N/A   Mostly Cloudy
3:50 PM 59.0 °F - 42.8 °F 55% 29.89 in 10.0 mi WNW 5.8 mph - N/A   Mostly Cloudy
4:50 PM 53.6 °F - 46.4 °F 77% 29.90 in 10.0 mi North 4.6 mph - N/A   Scattered Clouds
5:50 PM 51.8 °F - 48.2 °F 88% 29.91 in 10.0 mi Calm Calm - N/A   Mostly Cloudy
7:50 PM 46.4 °F - 46.4 °F 100% 29.95 in 10.0 mi Calm Calm - N/A   Scattered Clouds
7:55 PM 48.2 °F - 48.2 °F 100% 29.96 in 5.0 mi West 4.6 mph - N/A Rain Light Rain
8:15 PM 51.8 °F - 48.2 °F 88% 29.97 in 10.0 mi Calm Calm - N/A   Overcast
8:35 PM 51.8 °F - 48.2 °F 88% 29.98 in 10.0 mi Calm Calm - N/A   Mostly Cloudy
8:55 PM 48.2 °F - 48.2 °F 100% 29.99 in 10.0 mi Calm Calm - N/A   Scattered Clouds
9:15 PM 50.0 °F - 46.4 °F 87% 30.01 in 10.0 mi North 6.9 mph - N/A   Scattered Clouds
9:35 PM 50.0 °F - 46.4 °F 87% 30.01 in 10.0 mi North 5.8 mph - N/A   Mostly Cloudy
9:55 PM 48.2 °F - 46.4 °F 93% 30.01 in 10.0 mi Calm Calm - N/A   Mostly Cloudy
10:15 PM 48.2 °F - 44.6 °F 87% 30.02 in 10.0 mi Calm Calm - N/A   Partly Cloudy
10:35 PM 46.4 °F - 44.6 °F 93% 30.02 in 10.0 mi Calm Calm - N/A   Clear
10:55 PM 44.6 °F - 42.8 °F 93% 30.02 in 10.0 mi Calm Calm - N/A   Clear
11:15 PM 42.8 °F 41.1 °F 41.0 °F 93% 30.02 in 8.0 mi West 3.5 mph - N/A   Scattered Clouds
11:35 PM 46.4 °F 44.3 °F 46.4 °F 100% 30.02 in 10.0 mi West 4.6 mph - N/A   Scattered Clouds
11:55 PM 44.6 °F - 44.6 °F 100% 30.02 in 10.0 mi Calm Calm - N/A   Mostly Cloudy